Palm Springs, CA

3:17 AM PDT on May 28, 2018 (GMT -0700)
Palm Springs International

Weather History for KPSP - February, 2015

Change the Weather History Date:

Monday, February 16, 2015

  Actual Average Record
Temperature  
Mean Temperature 67 °F 60 °F  
Max Temperature 80 °F 73 °F 91 °F (1981)
Min Temperature 54 °F 48 °F 31 °F (1942)
Degree Days  
Heating Degree Days 0 5  
Month to date heating degree days 0 100  
Since 1 July heating degree days 362 727  
Cooling Degree Days 2 1  
Month to date cooling degree days 75 15  
Year to date cooling degree days 93 23  
Growing Degree Days 17 (Base 50)    
Moisture  
Dew Point 46 °F    
Average Humidity 43    
Maximum Humidity 53    
Minimum Humidity 32    
Precipitation  
Precipitation 0.00 in 0.05 in 0.75 in (1932)
Month to date precipitation 0.00 0.51  
Year to date precipitation 0.22 1.51  
Snow  
Snow 0.00 in - - ()
Month to date snowfall 0.0  
Year to date snowfall 0.0  
Snow Depth 0.00 in    
Sea Level Pressure  
Sea Level Pressure 29.94 in    
Wind  
Wind Speed 5 mph (NE)    
Max Wind Speed 12 mph    
Max Gust Speed 13 mph    
Visibility 10 miles    
Events      
T = Trace of Precipitation, MM = Missing Value Source: NWS Daily Summary

Daily Weather History Graph

Daily Weather History Graph

Search for Another Location

Airport or City:

Astronomy

Feb. 16, 2015 Rise Set
Actual Time 6:29 AM PST 5:31 PM PST
Civil Twilight 6:04 AM PST 5:56 PM PST
Nautical Twilight 5:34 AM PST 6:25 PM PST
Astronomical Twilight 5:05 AM PST 6:54 PM PST
Moon 4:23 AM PST (2/16) 3:18 PM PST (2/16)
Length of Visible Light 11h 52m
Length of Day
11h 01m
Waning Crescent, 7% of the Moon is Illuminated
Feb 16
Waning Crescent
Feb 18
New
Feb 25
First Quarter
Mar 5
Full
Mar 13
Last Quarter

Hourly Weather History & Observations

Time (PST) Temp. Dew Point Humidity Pressure Visibility Wind Dir Wind Speed Gust Speed Precip Events Conditions
12:53 AM 61.0 °F 39.9 °F 46% 29.98 in 10.0 mi NW 3.5 mph - N/A   Clear
1:53 AM 61.0 °F 36.0 °F 39% 29.97 in 10.0 mi NW 6.9 mph - N/A   Clear
2:53 AM 59.0 °F 35.1 °F 41% 29.96 in 10.0 mi NNW 4.6 mph - N/A   Clear
3:53 AM 60.1 °F 35.1 °F 39% 29.95 in 10.0 mi NNW 9.2 mph - N/A   Clear
4:53 AM 57.0 °F 36.0 °F 45% 29.95 in 10.0 mi Calm Calm - N/A   Clear
5:53 AM 55.9 °F 34.0 °F 44% 29.96 in 10.0 mi NE 4.6 mph - N/A   Clear
6:53 AM 55.9 °F 33.1 °F 42% 29.98 in 10.0 mi West 4.6 mph - N/A   Clear
7:53 AM 61.0 °F 37.0 °F 41% 29.99 in 10.0 mi North 3.5 mph - N/A   Clear
8:53 AM 64.9 °F 45.0 °F 48% 30.00 in 10.0 mi SE 4.6 mph - N/A   Clear
9:53 AM 68.0 °F 50.0 °F 52% 30.01 in 10.0 mi Variable 5.8 mph - N/A   Scattered Clouds
10:53 AM 71.1 °F 51.1 °F 49% 29.99 in 10.0 mi Variable 3.5 mph - N/A   Clear
11:53 AM 73.9 °F 52.0 °F 46% 29.95 in 10.0 mi Variable 6.9 mph - N/A   Clear
12:53 PM 77.0 °F 48.0 °F 36% 29.91 in 10.0 mi Variable 3.5 mph - N/A   Clear
1:53 PM 78.1 °F 46.9 °F 33% 29.89 in 10.0 mi ESE 6.9 mph - N/A   Clear
2:53 PM 79.0 °F 51.1 °F 38% 29.89 in 10.0 mi SE 8.1 mph - N/A   Clear
3:53 PM 79.0 °F 51.1 °F 38% 29.87 in 10.0 mi East 9.2 mph - N/A   Scattered Clouds
4:53 PM 77.0 °F 51.1 °F 40% 29.88 in 10.0 mi East 6.9 mph - N/A   Clear
5:53 PM 73.9 °F 52.0 °F 46% 29.89 in 10.0 mi ESE 5.8 mph - N/A   Clear
6:53 PM 72.0 °F 50.0 °F 46% 29.91 in 10.0 mi Calm Calm - N/A   Clear
7:53 PM 68.0 °F 51.8 °F 56% 29.92 in 10.0 mi Calm Calm - N/A   Clear
8:53 PM 66.0 °F 51.1 °F 59% 29.93 in 10.0 mi Calm Calm - N/A   Clear
9:53 PM 66.0 °F 52.0 °F 60% 29.93 in 10.0 mi North 3.5 mph - N/A   Clear
10:53 PM 62.1 °F 52.0 °F 70% 29.94 in 10.0 mi South 3.5 mph - N/A   Clear
11:53 PM 61.0 °F 52.0 °F 72% 29.96 in 10.0 mi Calm Calm - N/A   Clear